NWS Watch, Warning, Advisory or Statement is in effect for Boone County, KY. View Alert

Weather Station Data

Station Data Captured at Five Minute Intervals Since Midnight


Date Time Temp. RH % Dew Pt. Wind Speed Wind Dir. Peak Wind Wind Chill Pressure Precip. Solar W/m2 ET
9/25/18 2:50a 67.9 88 64.2 2.0 S 8.0 67.9 30.017 0.02 0 0.000
9/25/18 2:45a 67.8 88 64.1 2.0 SSW 7.0 67.8 30.017 0.01 0 0.000
9/25/18 2:40a 67.8 88 64.1 3.0 SSW 6.0 67.8 30.018 0.00 0 0.000
9/25/18 2:35a 67.7 88 64.0 3.0 SSW 6.0 67.7 30.017 0.00 0 0.000
9/25/18 2:30a 67.8 88 64.1 2.0 SW 6.0 67.8 30.016 0.00 0 0.000
9/25/18 2:25a 67.8 88 64.1 3.0 S 8.0 67.8 30.017 0.00 0 0.000
9/25/18 2:20a 67.8 88 64.1 2.0 S 4.0 67.8 30.017 0.00 0 0.000
9/25/18 2:15a 67.9 88 64.2 2.0 SSW 6.0 67.9 30.017 0.00 0 0.000
9/25/18 2:10a 67.9 88 64.2 3.0 SSW 6.0 67.9 30.020 0.00 0 0.000
9/25/18 2:05a 67.9 88 64.2 3.0 SSW 5.0 67.9 30.023 0.00 0 0.000
9/25/18 2:00a 67.9 88 64.2 3.0 SSW 7.0 67.9 30.022 0.00 0 0.001
9/25/18 1:55a 67.9 88 64.2 3.0 SSW 9.0 67.9 30.023 0.00 0 0.000
9/25/18 1:50a 67.9 88 64.2 4.0 SSW 10.0 67.9 30.024 0.00 0 0.000
9/25/18 1:45a 67.9 88 64.2 3.0 SSW 8.0 67.9 30.024 0.00 0 0.000
9/25/18 1:40a 67.9 88 64.2 3.0 SSW 7.0 67.9 30.023 0.00 0 0.000
9/25/18 1:35a 67.9 88 64.2 4.0 SSW 8.0 67.9 30.024 0.00 0 0.000
9/25/18 1:30a 67.9 88 64.2 3.0 S 6.0 67.9 30.024 0.00 0 0.000
9/25/18 1:25a 67.9 88 64.2 3.0 S 6.0 67.9 30.025 0.00 0 0.000
9/25/18 1:20a 67.9 88 64.2 2.0 SSE 6.0 67.9 30.022 0.00 0 0.000
9/25/18 1:15a 67.9 88 64.2 2.0 SSW 4.0 67.9 30.029 0.00 0 0.000
9/25/18 1:10a 67.9 88 64.2 3.0 S 8.0 67.9 30.030 0.00 0 0.000
9/25/18 1:05a 67.9 88 64.2 3.0 SSW 8.0 67.9 30.029 0.00 0 0.000
9/25/18 1:00a 67.9 88 64.2 2.0 SSE 5.0 67.9 30.030 0.00 0 0.001
9/25/18 12:55a 67.9 88 64.2 3.0 SSW 7.0 67.9 30.031 0.00 0 0.000
9/25/18 12:50a 68.0 88 64.3 2.0 SSW 5.0 68.0 30.032 0.00 0 0.000
9/25/18 12:45a 68.0 88 64.3 3.0 SSW 9.0 68.0 30.031 0.00 0 0.000
9/25/18 12:40a 67.9 88 64.2 3.0 SSW 8.0 67.9 30.033 0.00 0 0.000
9/25/18 12:35a 68.0 88 64.3 4.0 S 9.0 68.0 30.035 0.00 0 0.000
9/25/18 12:30a 68.0 88 64.3 2.0 S 5.0 68.0 30.034 0.00 0 0.000
9/25/18 12:25a 68.0 88 64.3 2.0 SSE 6.0 68.0 30.034 0.00 0 0.000
9/25/18 12:20a 68.0 88 64.3 3.0 SSE 5.0 68.0 30.033 0.00 0 0.000
9/25/18 12:15a 68.0 88 64.3 3.0 SSE 10.0 68.0 30.036 0.00 0 0.000
9/25/18 12:10a 68.0 88 64.3 3.0 SSW 8.0 68.0 30.033 0.00 0 0.000
9/25/18 12:05a 68.0 88 64.3 3.0 S 5.0 68.0 30.033 0.00 0 0.000
9/25/18 12:00a 68.1 88 64.4 3.0 SSW 9.0 68.1 30.034 0.00 0 0.001

12,177 Page Views